Address 0x9f04a4bdddfa3f1d7e8797ac38047440765cfcaf 6

 
Txn Hash Method
Block
From
To
Value [Txn Fee]
0x4302da75fa44cfe993123d33f9983e8d8a1bafadaf50a91283c4af3a0f943d1f0xa44bbb15237373392022-01-15 6:01:508 days 23 hrs ago0x9f04a4bdddfa3f1d7e8797ac38047440765cfcafOUT 0xc30141b657f4216252dc59af2e7cdb9d8792e1b00 MATIC0.0031207530
0xa7c9463deda252674e37f8ca9f960142f0d87a76bc4fb715a0dc70247c199983Approve237373152022-01-15 6:01:028 days 23 hrs ago0x9f04a4bdddfa3f1d7e8797ac38047440765cfcafOUT USD Coin0 MATIC0.001743330
0x45bbc603020ba47d5a8831437f6f7de247bdb04c2f3bba42c797a6dda986af23Swap Exact ETH F...237372982022-01-15 6:00:288 days 23 hrs ago0x9f04a4bdddfa3f1d7e8797ac38047440765cfcafOUT SushiSwap: SushiV2Router024 MATIC0.0034579230
0xe6c3652546e0b1f77585e643b107f27b9c407511252ad62079a9f93da5fb6b67Swap Exact ETH F...237372442022-01-15 5:58:368 days 23 hrs ago0x9f04a4bdddfa3f1d7e8797ac38047440765cfcafOUT SushiSwap: SushiV2Router025 MATIC0.0039709230
0x0e73f6652e0ec89c06f0e7e14c2834fef5df64d92d5fc27aa3f85c4529db6383Swap Exact Token...237370912022-01-15 5:53:228 days 23 hrs ago0x9f04a4bdddfa3f1d7e8797ac38047440765cfcafOUT SushiSwap: SushiV2Router020 MATIC0.0035681730
0x42aa042c3b7a1daf36fb26ad591c27036bf984ca51856a9732c869dcc7de2b2aApprove237370282022-01-15 5:51:129 days 1 min ago0x9f04a4bdddfa3f1d7e8797ac38047440765cfcafOUT USD Coin0 MATIC0.0017533830
0x69ec9dfa6246f28e04118f602e431fe224be95e8ed357905cf731d21fcb28fb6Approve237350632022-01-15 4:35:069 days 1 hr ago0x9f04a4bdddfa3f1d7e8797ac38047440765cfcafOUT USD Coin0 MATIC0.0017533830
0x6344b8614bf4269f341cb6ac0e1396f55e481c3c15c677a1ac9df59e064334ffClaim234463902022-01-07 16:12:0016 days 13 hrs ago0x9f04a4bdddfa3f1d7e8797ac38047440765cfcafOUT0xc250d1bb1aee57c8b895a58ddf5e302513afbf300 MATIC0.016658500
0x00287c04216dbbb4a4efba5c4b30d4438ea771b7f309e654a429fc418f2c7d8cTransfer234463862022-01-07 16:11:5216 days 13 hrs ago0x9f04a4bdddfa3f1d7e8797ac38047440765cfcafOUT0xc250d1bb1aee57c8b895a58ddf5e302513afbf300 MATIC0.0105500
0x9ae2b354950a629eecf6f3fe30678f07dd9de30107ec50f3cf5c24ae3849ea9eZap In217501092021-11-24 15:40:2160 days 14 hrs ago0x9f04a4bdddfa3f1d7e8797ac38047440765cfcafOUT Zapper.Fi: Quickswap Zap In0.5 MATIC0.0089465430
0x68d72664add35f11b0b19215cf62ef29b442457d5ff19395ffff2f2a7081276bSwap217122712021-11-23 16:05:5761 days 13 hrs ago0x9f04a4bdddfa3f1d7e8797ac38047440765cfcafOUT Metamask: Swap Router0.5 MATIC0.041155623153
0xc9722a44a074258b46da933c54392012dae49aaf1a60d1f58eb7127a710feedcSwap217122302021-11-23 16:04:3161 days 13 hrs ago0x9f04a4bdddfa3f1d7e8797ac38047440765cfcafOUT Metamask: Swap Router0.3 MATIC0.040624922142
0x853b067d370a312d2b509f74c7efe0aae73b1a4207fba685a652fb114ca85ca7Deposit217119532021-11-23 15:52:5361 days 13 hrs ago0x9f04a4bdddfa3f1d7e8797ac38047440765cfcafOUT 0xe95876787b055f1b9e4cfd5d3e32bde302bf789d0 MATIC0.004436430
0xc43d2c8c94454ed4da54c73f626d8072b9eacd7a0792067828bfdaed8376a851Approve217119362021-11-23 15:52:1961 days 13 hrs ago0x9f04a4bdddfa3f1d7e8797ac38047440765cfcafOUT 0xc2132d05d31c914a87c6611c10748aeb04b58e8f0 MATIC0.0015621630
0xe8a9ea117a9e9fed8dc26d40658012e8186ffa7f870655a3ec5a01d4bd21dbd3Swap217119002021-11-23 15:51:0361 days 14 hrs ago0x9f04a4bdddfa3f1d7e8797ac38047440765cfcafOUT Metamask: Swap Router0.3 MATIC0.039142224144
0xaaf392f1ce5405a95e65500d5bb536cbe10082e5b1bf00b60121cfa38dc50d4bUpgrade By ETH217114422021-11-23 15:35:1961 days 14 hrs ago0x9f04a4bdddfa3f1d7e8797ac38047440765cfcafOUT 0x3ad736904e9e65189c3000c7dd2c8ac8bb7cd4e30.5 MATIC0.001539997530.3
0x4adadab538be0c6dc25bcb7788410a1ff677896c976bf79485e3003f59accbf1Upgrade By ETH217114412021-11-23 15:35:1761 days 14 hrs ago0x9f04a4bdddfa3f1d7e8797ac38047440765cfcafOUT 0x3ad736904e9e65189c3000c7dd2c8ac8bb7cd4e30.5 MATIC0.0020377530
0xdbaf0ff0bd5d5e209b4823b9574fdb6e3ab6432b73cd03bc9c5fccaf5f965560Stake217111492021-11-23 15:25:1361 days 14 hrs ago0x9f04a4bdddfa3f1d7e8797ac38047440765cfcafOUT 0x7deebcad1416110022f444b03aeb1d20eb4ea53f0 MATIC0.0038915430
0x8df6fd0e82c6929f6477ad5ecf70612d52c35922292231481f456f8861bdb039Approve217111442021-11-23 15:25:0361 days 14 hrs ago0x9f04a4bdddfa3f1d7e8797ac38047440765cfcafOUT 0xbc4fb4ed825c65ff48163af7e59d49e32edb52690 MATIC0.0007963830
0x7a049f9f9710fbc360250c83e43204576ea92ec003cdf51a590057a700a50caaApprove217111312021-11-23 15:24:3761 days 14 hrs ago0x9f04a4bdddfa3f1d7e8797ac38047440765cfcafOUT 0xbc4fb4ed825c65ff48163af7e59d49e32edb52690 MATIC0.0013933830
0xa2cec3fe121d8f03376003d99228b0d5a2d4e9d3c36056c524cdb2a003a22bc1Add Liquidity217110772021-11-23 15:22:4561 days 14 hrs ago0x9f04a4bdddfa3f1d7e8797ac38047440765cfcafOUT 0x3d4cc8a61c7528fd86c55cfe061a78dcba48edd10 MATIC0.0060843330
0xf2219b9df816cd249411c141e2995154118e738a65d25d1428e07e360ffc56e2Approve217110552021-11-23 15:22:0161 days 14 hrs ago0x9f04a4bdddfa3f1d7e8797ac38047440765cfcafOUT Polygon: WMATIC Token0 MATIC0.0013919130
0xa2c2b4986d304b60035cd7497b594ff39f5232d42c0b1cd9a90e474755c17ca3Deposit217110252021-11-23 15:20:5761 days 14 hrs ago0x9f04a4bdddfa3f1d7e8797ac38047440765cfcafOUT Polygon: WMATIC Token0.5 MATIC0.0013512330
0x35b91eca36c5114110573a44d725bacad9e4a1a15d880e81a814f2c8db94c9e0Approve217102742021-11-23 14:52:5261 days 14 hrs ago0x9f04a4bdddfa3f1d7e8797ac38047440765cfcafOUT Polygon: WMATIC Token0 MATIC0.007377123159
0x2855c174e60f50f49c1ed992586af30b3097d98c5bfa1490615a2ba5b8a86777Transfer217101442021-11-23 14:46:1861 days 15 hrs ago0xd70250731a72c33bfb93016e3d1f0ca160df7e42 IN 0x9f04a4bdddfa3f1d7e8797ac38047440765cfcaf6.2419 MATIC0.00094545
[ Download CSV Export 
Latest 1 internal transaction
Parent Txn Hash Block From To Value
0x0e73f6652e0ec89c06f0e7e14c2834fef5df64d92d5fc27aa3f85c4529db6383237370912022-01-15 5:53:228 days 23 hrs ago SushiSwap: SushiV2Router020x9f04a4bdddfa3f1d7e8797ac38047440765cfcaf8.599940940858494478 MATIC
[ Download CSV Export 
Loading

Contract Name:
0 MATIC

Compiler Version
0

Optimization Enabled:
0 MATIC

Other Settings:
-NA-
Block Transaction Gas Used Reward
Age Block Fee Address BC Fee Address Voting Power Jailed Incoming
Block Uncle Number Difficulty Gas Used Reward
Loading
Loading
Make sure to use the "Vote Down" button for any spammy posts, and the "Vote Up" for interesting conversations.